#timestamp,LO_Frequency,Hit,StdDev 
1649264445.6,286046991.7,E
1649264455.5,286046998.3,N
1649264475.3,286047001.5,P
1649264495.2,286047001.6,N
1649264515.0,286046999.9,N
1649264515.9,286046999.9,N
1649264535.7,286047000.1,N
1649264555.6,286047004.3,Y
1649264575.4,286047003.6,P
1649264595.3,286047005.1,N
1649264615.1,286047003.3,N
1649264635.8,286047002.2,N
1649264655.7,286046999.9,N
1649264675.5,286047000.8,N
1649264695.4,286047002.8,N
1649264715.2,286047000.2,N
1649264735.0,286047000.2,N
1649264735.9,286047000.2,N
1649264755.8,286047000.3,N
1649264775.6,286046999.9,N
1649264795.4,286047002.3,N
1649264815.3,286046999.8,N
1649264835.1,286046999.9,N
1649264855.9,286046998.5,N
1649264875.7,286046995.2,N
1649264895.5,286046996.0,N
1649264915.4,286046995.9,N
1649264935.2,286046995.7,N
1649264955.0,286046998.0,N
1649264955.9,286046998.0,N
1649264975.8,286046995.1,N
1649264995.6,286046991.7,Y
1649265015.5,286046990.6,P
1649265035.3,286046994.4,N
1649265055.1,286046995.6,N
1649265075.9,286046995.3,N
1649265095.7,286046998.3,N
1649265115.5,286046996.6,N
1649265135.4,286046995.7,N
1649265155.2,286046992.1,Y
1649265175.1,286046999.2,P
1649265176.0,286046999.2,N
1649265195.8,286047001.1,N
1649265215.6,286046998.6,N
1649265235.5,286046999.9,N
1649265255.3,286047001.6,N
1649265275.2,286047004.2,N
1649265295.9,286047003.5,N
1649265315.7,286047004.1,N
1649265335.6,286047004.1,N
1649265355.4,286047004.0,N
1649265375.2,286047005.6,N
1649265395.1,286047005.8,N
1649265396.0,286047005.8,N
1649265415.8,286047006.0,N
1649265435.7,286047005.5,N
1649265455.5,286047002.9,N
1649265475.3,286047004.8,N
1649265495.2,286047003.0,N
1649265515.0,286047005.6,N
1649265515.9,286047005.6,N
1649265535.7,286047003.4,N
1649265555.6,286047003.8,N
1649265575.4,286047002.1,N
1649265595.3,286046999.9,N
1649265615.1,286047002.0,N
1649265616.0,286047002.0,N
1649265635.8,286047002.8,N
1649265655.7,286047000.4,N
1649265675.5,286047002.4,N
1649265695.3,286047000.4,N
1649265715.2,286047000.9,N
1649265735.0,286047002.8,N
1649265735.9,286047002.8,N
1649265755.8,286047001.8,N
1649265775.6,286047002.7,N
1649265795.4,286047004.0,N
1649265815.3,286047003.2,N
1649265835.1,286047005.9,Y
1649265855.9,286047001.3,P
1649265875.7,286047002.0,N
1649265895.5,286047001.0,N
1649265915.4,286047002.5,N
1649265935.2,286047000.1,N
1649265955.0,286046998.9,N
1649265955.9,286046998.9,N
1649265975.8,286046999.6,N
1649265995.6,286046997.7,N
1649266015.5,286046996.7,N
1649266035.3,286046999.4,N
1649266085.2,286046998.8,E
1649266095.1,286046998.7,N
1649266096.0,286046998.7,P
1649266115.8,286046997.1,P
1649266135.7,286046995.5,Y
1649266155.5,286046996.6,P
1649266175.3,286046999.4,N
1649266195.2,286047001.2,N
1649266215.0,286046999.8,N
1649266215.9,286046999.8,N
1649266235.8,286046999.7,N
1649266255.6,286047002.0,N
1649266275.4,286047004.1,N
1649266295.3,286047003.3,N
1649266315.1,286047005.2,N
1649266335.8,286047003.3,N
1649266355.7,286047003.7,N
1649266375.5,286047002.9,N
1649266395.4,286047005.5,N
1649266415.2,286047004.8,N
1649266435.0,286047003.0,N
1649266435.9,286047003.0,N
1649266455.8,286047003.2,N
1649266475.6,286047005.6,N
1649266495.4,286046999.8,N
1649266515.3,286046999.1,N
1649266535.1,286047000.5,N
1649266555.9,286047000.7,N
1649266575.7,286046999.1,N
1649266595.5,286046998.3,N
1649266615.4,286046997.4,N
1649266635.2,286046995.6,N
1649266655.1,286046995.9,N
1649266656.0,286046995.9,N
1649266675.8,286046997.5,N
1649266695.6,286046996.0,N
1649266715.5,286046994.5,N
1649266735.3,286046991.9,N
1649266755.1,286046993.4,N
1649266775.9,286046995.3,N
1649266795.7,286046999.5,N
1649266815.6,286047000.2,N
1649266835.4,286047000.1,N
1649266855.2,286047000.4,N
1649266875.1,286046999.6,N
1649266876.0,286046999.6,N
1649266895.8,286046998.1,N
1649266915.6,286047001.2,N
1649266935.5,286047000.8,N
1649266955.3,286046998.6,N
1649266975.2,286047002.8,N
1649266995.9,286047002.5,N
1649267015.7,286047002.1,N
1649267035.6,286047000.2,N
1649267055.4,286047004.2,N
1649267075.2,286047003.2,N
1649267095.1,286047003.5,N
1649267096.0,286047003.5,N
1649267115.8,286047004.2,N
1649267135.7,286047001.3,N
1649267155.5,286047003.8,N
1649267175.3,286047002.6,N
1649267195.2,286047000.5,N
1649267215.0,286047000.4,N
1649267215.9,286047000.4,N
1649267235.8,286046996.5,N
1649267255.6,286046999.4,N
1649267275.4,286046996.1,N
1649267295.3,286046996.1,N
1649267315.1,286046996.9,N
1649267335.9,286047000.2,N
1649267355.7,286047001.3,N
1649267375.5,286047000.3,N
1649267395.4,286047000.3,N
1649267415.2,286046998.2,N
1649267435.0,286047003.9,N
1649267436.0,286047003.9,N
1649267455.8,286047001.3,N
1649267475.6,286047002.5,N
1649267495.5,286047006.0,N
1649267515.3,286047005.5,N
1649267535.1,286047003.3,N
1649267555.9,286047004.4,N
1649267575.7,286046999.7,N
1649267595.6,286047000.0,N
1649267615.4,286046998.1,N
1649267635.2,286046996.5,N
1649267655.1,286046997.7,N
1649267656.0,286046997.7,N
1649267675.8,286046995.8,N
1649267695.7,286046995.8,N
1649267715.5,286046998.0,N
1649267735.3,286046997.8,N
1649267755.2,286046995.7,N
1649267775.0,286046994.6,N
1649267775.9,286046994.6,N
1649267795.7,286046993.5,N
1649267815.6,286046994.6,N
1649267835.4,286046991.8,N
1649267855.3,286046992.5,N
1649267875.1,286046992.5,N
1649267876.0,286046992.5,N
1649267895.8,286046990.3,N
1649267915.7,286046988.8,N
1649267935.5,286046988.8,N
1649267955.3,286046989.3,N
1649267975.2,286046987.1,N
1649267995.0,286046987.6,N
1649267995.9,286046987.6,N
